Regional Weather Roundup
Issued by NWS Green Bay, WI

Home | Current Version | Previous Version | Graphics & Text | Print | Product List | Glossary Off
Versions: 1 2 3 4 5 6 7 8 9 10 11 12 13 14 15 16 17 18 19 20 21 22 23 24 25 26 27 28 29 30 31 32 33 34 35 36 37 38 39 40 41 42 43 44 45 46 47 48 49 50

000
ASUS43 KGRB 191210
RWRGRB

NORTH-CENTRAL AND NORTHEAST WISCONSIN REGIONAL WEATHER ROUNDUP
NATIONAL WEATHER SERVICE GREEN BAY WI
700 AM CDT SAT APR 19 2014

WIZ005-009-010>012-018-019-191300-
NORTH CENTRAL WISCONSIN

CITY           SKY/WX    TMP DP  RH WIND       PRES   REMARKS
IRONWOOD       MOCLDY    34  23  64 SE16G31   30.19F
MANITOWISH WTR PTCLDY    31  24  75 SE12G20   30.28F
ARBOR VITAE    PTCLDY    32  25  76 SE12      30.31F
EAGLE RIVER    MOCLDY    29  23  75 SE9       30.34F
LAND O LAKES   MOCLDY    29  24  81 S7        30.34F
RHINELANDER    PTCLDY    28  23  81 SE10      30.35S
PHILLIPS       MOCLDY    32  24  72 SE15G21   30.28F
ANTIGO         PTCLDY    28  25  89 SE9       30.39R
TOMAHAWK       CLEAR     30  24  80 SE6       30.34F
MERRILL        CLEAR     32  25  77 CALM      30.37S
$$

WIZ013-073-191300-
NORTHEAST WISCONSIN

CITY           SKY/WX    TMP DP  RH WIND       PRES   REMARKS
IRON MOUNTAIN  CLOUDY    27  24  89 SE3       30.41F
MARINETTE      CLOUDY    30  27  86 E7        30.45S
OCONTO         MOCLDY    30  28  91 E5        30.45R
$$

WIZ017-030-035>037-045-191300-
CENTRAL WISCONSIN

CITY           SKY/WX    TMP DP  RH WIND       PRES   REMARKS
MEDFORD        PTCLDY    32  25  76 SE12G17   30.32F
WAUSAU         CLEAR     31  26  82 E10       30.37R
MOSINEE        CLEAR     30  27  86 E8        30.38S
MARSHFIELD     CLEAR     33  26  75 SE13      30.35S
WISC RAPIDS    CLEAR     32  26  78 E8        30.39R
STEVENS POINT  CLEAR     30  26  84 E10       30.40R
WAUPACA        CLEAR     34  28  80 E7        30.43R
SHAWANO        PTCLDY    30  28  90 CALM      30.44R
CLINTONVILLE   PTCLDY    32  28  86 E3        30.43R
$$

WIZ038-039-048-051-191300-
FOX VALLEY

CITY           SKY/WX    TMP DP  RH WIND       PRES   REMARKS
NWS GREEN BAY  CLEAR     32  29  88 E6        30.45R
APPLETON       PTCLDY    32  27  80 E7        30.42S
OSHKOSH        CLEAR     33  27  78 E10       30.41R
FOND DU LAC    CLEAR     34  25  69 SE10      30.41R
$$

WIZ022-050-052-191300-
EAST CENTRAL WISCONSIN

CITY           SKY/WX    TMP DP  RH WIND       PRES   REMARKS
STURGEON BAY   MOCLDY    32  28  86 E3        30.45S
MANITOWOC      CLEAR     34  30  85 E9        30.45R
SHEBOYGAN      CLEAR     32  28  85 E7        30.43S
$$

LMZ563-521-522-541>543-191300-
LAKESHORE

STATION/POSITION TIME  TEMP    WIND        PRES    VSBY  WAVE
                       AIR SEA DIR/SP/G                  HT/PER
                 (UTC) (F)     (DEG/KT/KT) (MB)    (MI)  (FT/S)
SHEBOYGAN LKSHOR 1200   35      80/ 11/ 12 1031.7R
KEWAUNEE LKSHORE 1200   34      90/  9/ 11 1031.5R
NORTHPORT PIER   1200   32     100/  4/  5 1031.8S
SISTER BAY LKSHO 1200   33        CALM       N/A
STURGEON BAY CG  1200   34      90/  9     1029.3      6   1
MENOMINEE LKSHOR 1200   27      30/  6/  8 1031.8R
$$



USA.gov is the U.S. government's official web portal to all federal, state and local government web resources and services.